Tracking 26442 objects as of 6-Dec-2022
HD Live streaming from Space Station
objects crossing your sky now

OF-2

Track OF-2 now!
10-day predictions
OF-2 is classified as:


NORAD ID: 45113
Int'l Code: 2019-071C
Perigee: 391.8 km
Apogee: 407.5 km
Inclination: 51.6 °
Period: 92.4 minutes
Semi major axis: 6770 km
RCS: Unknown
Launch date: November 2, 2019
Source: United States (US)
Launch site: WALLOPS ISLAND (WLPIS)

Uplink (MHz):
Downlink (MHz): 435.040/2426.000
Beacon (MHz):
Mode: 9k6 GMSK/3-5Mbps QPSK
Call sign: KG5UAK
Status: Inactive

aabbcc
Your satellite tracking list
Your tracking list is empty




NASA's NSSDC Master Catalog

Two Line Element Set (TLE):
1 45113U 19071C   22339.30177075  .00061334  00000-0  79144-3 0  9996
2 45113  51.6341 292.3052 0011636  85.1168 275.1153 15.58316218159880
Source of the keplerian elements: Caltech